O3B FM3

Last updated on Wed Jun 24 2026 00:03:25 GMT+0000 (Coordinated Universal Time)

1 40079U 14038A 26173.30297650 -.00000023 00000+0 00000+0 0 9991 2 40079 0.0479 353.6094 0002398 155.6507 210.7521 5.00115712213302
UTC large
Height (km)
Speed (km/s)
/
Latitude / Longitude
Inclination (degrees)
Orbital Period (minutes)
Azimuth
Elevation
Range (km)
Doppler Factor

Next 0 passes for location: London (51.5072 / 0.1276)

No passes found over London.
O3B FM3